Year,Month,Day,Hour,Minute,Value (Times are PST for temperature in C)
2021,06,26,00,00,22.60
2021,06,26,00,01,22.60
2021,06,26,00,02,22.60
2021,06,26,00,03,22.60
2021,06,26,00,04,22.60
2021,06,26,00,05,22.60
2021,06,26,00,06,22.60
2021,06,26,00,07,22.50
2021,06,26,00,08,22.50
2021,06,26,00,09,22.50
2021,06,26,00,10,22.50
2021,06,26,00,11,22.40
2021,06,26,00,12,22.40
2021,06,26,00,13,22.40
2021,06,26,00,14,22.40
2021,06,26,00,15,22.40
2021,06,26,00,16,22.40
2021,06,26,00,17,22.40
2021,06,26,00,18,22.40
2021,06,26,00,19,22.40
2021,06,26,00,20,22.30
2021,06,26,00,21,22.30
2021,06,26,00,22,22.30
2021,06,26,00,23,22.20
2021,06,26,00,24,22.20
2021,06,26,00,25,22.20
2021,06,26,00,26,22.10
2021,06,26,00,27,22.10
2021,06,26,00,28,22.10
2021,06,26,00,29,22.10
2021,06,26,00,30,22.00
2021,06,26,00,31,22.00
2021,06,26,00,32,22.00
2021,06,26,00,33,22.00
2021,06,26,00,34,22.00
2021,06,26,00,35,22.00
2021,06,26,00,36,22.00
2021,06,26,00,37,22.00
2021,06,26,00,38,21.90
2021,06,26,00,39,21.90
2021,06,26,00,40,21.90
2021,06,26,00,41,21.90
2021,06,26,00,42,21.90
2021,06,26,00,43,21.80
2021,06,26,00,44,21.80
2021,06,26,00,45,21.80
2021,06,26,00,46,21.80
2021,06,26,00,47,21.80
2021,06,26,00,48,21.80
2021,06,26,00,49,21.80
2021,06,26,00,50,21.80
2021,06,26,00,51,21.70
2021,06,26,00,52,21.70
2021,06,26,00,53,21.70
2021,06,26,00,54,21.70
2021,06,26,00,55,21.70
2021,06,26,00,56,21.70
2021,06,26,00,57,21.70
2021,06,26,00,58,21.70
2021,06,26,00,59,21.60
2021,06,26,01,00,21.60
2021,06,26,01,01,21.60
2021,06,26,01,02,21.60
2021,06,26,01,03,21.50
2021,06,26,01,04,21.40
2021,06,26,01,05,21.30
2021,06,26,01,06,21.30
2021,06,26,01,07,21.30
2021,06,26,01,08,21.30
2021,06,26,01,09,21.20
2021,06,26,01,10,21.10
2021,06,26,01,11,21.00
2021,06,26,01,12,21.00
2021,06,26,01,13,20.90
2021,06,26,01,14,20.80
2021,06,26,01,15,20.70
2021,06,26,01,16,20.60
2021,06,26,01,17,20.50
2021,06,26,01,18,20.50
2021,06,26,01,19,20.40
2021,06,26,01,20,20.30
2021,06,26,01,21,20.20
2021,06,26,01,22,20.20
2021,06,26,01,23,20.20
2021,06,26,01,24,20.10
2021,06,26,01,25,20.10
2021,06,26,01,26,20.10
2021,06,26,01,27,20.10
2021,06,26,01,28,20.00
2021,06,26,01,29,19.90
2021,06,26,01,30,19.90
2021,06,26,01,31,19.90
2021,06,26,01,32,19.90
2021,06,26,01,33,20.00
2021,06,26,01,34,19.90
2021,06,26,01,35,19.90
2021,06,26,01,36,19.90
2021,06,26,01,37,19.80
2021,06,26,01,38,19.60
2021,06,26,01,39,19.50
2021,06,26,01,40,19.40
2021,06,26,01,41,19.20
2021,06,26,01,42,19.10
2021,06,26,01,43,19.00
2021,06,26,01,44,18.80
2021,06,26,01,45,18.70
2021,06,26,01,46,18.60
2021,06,26,01,47,18.40
2021,06,26,01,48,18.20
2021,06,26,01,49,18.10
2021,06,26,01,50,18.00
2021,06,26,01,51,17.90
2021,06,26,01,52,17.80
2021,06,26,01,53,17.70
2021,06,26,01,54,17.70
2021,06,26,01,55,17.60
2021,06,26,01,56,17.50
2021,06,26,01,57,17.50
2021,06,26,01,58,17.40
2021,06,26,01,59,17.30
2021,06,26,02,00,17.30
2021,06,26,02,01,17.30
2021,06,26,02,02,17.30
2021,06,26,02,03,17.30
2021,06,26,02,04,17.30
2021,06,26,02,05,17.30
2021,06,26,02,06,17.20
2021,06,26,02,07,17.20
2021,06,26,02,08,17.20
2021,06,26,02,09,17.20
2021,06,26,02,10,17.20
2021,06,26,02,11,17.20
2021,06,26,02,12,17.20
2021,06,26,02,13,17.20
2021,06,26,02,14,17.20
2021,06,26,02,15,17.20
2021,06,26,02,16,17.20
2021,06,26,02,17,17.20
2021,06,26,02,18,17.20
2021,06,26,02,19,17.30
2021,06,26,02,20,17.30
2021,06,26,02,21,17.30
2021,06,26,02,22,17.30
2021,06,26,02,23,17.30
2021,06,26,02,24,17.30
2021,06,26,02,25,17.30
2021,06,26,02,26,17.40
2021,06,26,02,27,17.40
2021,06,26,02,28,17.40
2021,06,26,02,29,17.50
2021,06,26,02,30,17.50
2021,06,26,02,31,17.50
2021,06,26,02,32,17.50
2021,06,26,02,33,17.50
2021,06,26,02,34,17.60
2021,06,26,02,35,17.60
2021,06,26,02,36,17.60
2021,06,26,02,37,17.60
2021,06,26,02,38,17.60
2021,06,26,02,39,17.60
2021,06,26,02,40,17.60
2021,06,26,02,41,17.60
2021,06,26,02,42,17.60
2021,06,26,02,43,17.50
2021,06,26,02,44,17.50
2021,06,26,02,45,17.50
2021,06,26,02,46,17.50
2021,06,26,02,47,17.50
2021,06,26,02,48,17.50
2021,06,26,02,49,17.50
2021,06,26,02,50,17.50
2021,06,26,02,51,17.50
2021,06,26,02,52,17.50
2021,06,26,02,53,17.40
2021,06,26,02,54,17.40
2021,06,26,02,55,17.40
2021,06,26,02,56,17.40
2021,06,26,02,57,17.40
2021,06,26,02,58,17.40
2021,06,26,02,59,17.40
2021,06,26,03,00,17.40
2021,06,26,03,01,17.40
2021,06,26,03,02,17.40
2021,06,26,03,03,17.40
2021,06,26,03,04,17.40
2021,06,26,03,05,17.40
2021,06,26,03,06,17.40
2021,06,26,03,07,17.40
2021,06,26,03,08,17.40
2021,06,26,03,09,17.40
2021,06,26,03,10,17.40
2021,06,26,03,11,17.40
2021,06,26,03,12,17.50
2021,06,26,03,13,17.50
2021,06,26,03,14,17.50
2021,06,26,03,15,17.50
2021,06,26,03,16,17.50
2021,06,26,03,17,17.50
2021,06,26,03,18,17.50
2021,06,26,03,19,17.50
2021,06,26,03,20,17.50
2021,06,26,03,21,17.60
2021,06,26,03,22,17.60
2021,06,26,03,23,17.60
2021,06,26,03,24,17.60
2021,06,26,03,25,17.60
2021,06,26,03,26,17.60
2021,06,26,03,27,17.60
2021,06,26,03,28,17.60
2021,06,26,03,29,17.70
2021,06,26,03,30,17.70
2021,06,26,03,31,17.70
2021,06,26,03,32,17.70
2021,06,26,03,33,17.70
2021,06,26,03,34,17.70
2021,06,26,03,35,17.70
2021,06,26,03,36,17.70
2021,06,26,03,37,17.70
2021,06,26,03,38,17.70
2021,06,26,03,39,17.70
2021,06,26,03,40,17.70
2021,06,26,03,41,17.70
2021,06,26,03,42,17.70
2021,06,26,03,43,17.70
2021,06,26,03,44,17.70
2021,06,26,03,45,17.70
2021,06,26,03,46,17.70
2021,06,26,03,47,17.80
2021,06,26,03,48,17.80
2021,06,26,03,49,17.80
2021,06,26,03,50,17.80
2021,06,26,03,51,17.80
2021,06,26,03,52,17.80
2021,06,26,03,53,17.80
2021,06,26,03,54,17.80
2021,06,26,03,55,17.90
2021,06,26,03,56,17.90
2021,06,26,03,57,17.90
2021,06,26,03,58,17.90
2021,06,26,03,59,17.90
2021,06,26,04,00,17.90
2021,06,26,04,01,17.90
2021,06,26,04,02,17.90
2021,06,26,04,03,17.90
2021,06,26,04,04,17.90
2021,06,26,04,05,18.00
2021,06,26,04,06,18.10
2021,06,26,04,07,18.10
2021,06,26,04,08,18.10
2021,06,26,04,09,18.10
2021,06,26,04,10,18.10
2021,06,26,04,11,18.10
2021,06,26,04,12,18.10
2021,06,26,04,13,18.10
2021,06,26,04,14,18.10
2021,06,26,04,15,18.10
2021,06,26,04,16,18.10
2021,06,26,04,17,18.10
2021,06,26,04,18,18.10
2021,06,26,04,19,18.10
2021,06,26,04,20,18.10
2021,06,26,04,21,18.00
2021,06,26,04,22,17.90
2021,06,26,04,23,17.90
2021,06,26,04,24,17.90
2021,06,26,04,25,17.90
2021,06,26,04,26,17.90
2021,06,26,04,27,17.90
2021,06,26,04,28,17.90
2021,06,26,04,29,17.90
2021,06,26,04,30,17.90
2021,06,26,04,31,17.90
2021,06,26,04,32,17.90
2021,06,26,04,33,17.90
2021,06,26,04,34,17.90
2021,06,26,04,35,17.90
2021,06,26,04,36,17.90
2021,06,26,04,37,17.90
2021,06,26,04,38,17.90
2021,06,26,04,39,17.90
2021,06,26,04,40,17.90
2021,06,26,04,41,18.10
2021,06,26,04,42,18.10
2021,06,26,04,43,18.20
2021,06,26,04,44,18.30
2021,06,26,04,45,18.40
2021,06,26,04,46,18.50
2021,06,26,04,47,18.60
2021,06,26,04,48,18.70
2021,06,26,04,49,18.80
2021,06,26,04,50,18.90
2021,06,26,04,51,18.90
2021,06,26,04,52,18.90
2021,06,26,04,53,19.00
2021,06,26,04,54,19.10
2021,06,26,04,55,19.10
2021,06,26,04,56,19.10
2021,06,26,04,57,19.00
2021,06,26,04,58,18.90
2021,06,26,04,59,18.90
2021,06,26,05,00,18.90
2021,06,26,05,01,18.90
2021,06,26,05,02,18.80
2021,06,26,05,03,18.80
2021,06,26,05,04,18.70
2021,06,26,05,05,18.70
2021,06,26,05,06,18.60
2021,06,26,05,07,18.60
2021,06,26,05,08,18.60
2021,06,26,05,09,18.50
2021,06,26,05,10,18.50
2021,06,26,05,11,18.50
2021,06,26,05,12,18.40
2021,06,26,05,13,18.40
2021,06,26,05,14,18.40
2021,06,26,05,15,18.30
2021,06,26,05,16,18.30
2021,06,26,05,17,18.30
2021,06,26,05,18,18.30
2021,06,26,05,19,18.20
2021,06,26,05,20,18.20
2021,06,26,05,21,18.20
2021,06,26,05,22,18.20
2021,06,26,05,23,18.20
2021,06,26,05,24,18.20
2021,06,26,05,25,18.20
2021,06,26,05,26,18.10
2021,06,26,05,27,18.10
2021,06,26,05,28,18.10
2021,06,26,05,29,18.10
2021,06,26,05,30,18.00
2021,06,26,05,31,17.90
2021,06,26,05,32,17.90
2021,06,26,05,33,17.90
2021,06,26,05,34,17.90
2021,06,26,05,35,17.90
2021,06,26,05,36,17.90
2021,06,26,05,37,17.90
2021,06,26,05,38,17.80
2021,06,26,05,39,17.80
2021,06,26,05,40,17.80
2021,06,26,05,41,17.80
2021,06,26,05,42,17.70
2021,06,26,05,43,17.70
2021,06,26,05,44,17.70
2021,06,26,05,45,17.70
2021,06,26,05,46,17.70
2021,06,26,05,47,17.70
2021,06,26,05,48,17.70
2021,06,26,05,49,17.70
2021,06,26,05,50,17.70
2021,06,26,05,51,17.80
2021,06,26,05,52,17.80
2021,06,26,05,53,17.80
2021,06,26,05,54,17.80
2021,06,26,05,55,17.90
2021,06,26,05,56,17.90
2021,06,26,05,57,17.90
2021,06,26,05,58,18.00
2021,06,26,05,59,18.10
2021,06,26,06,00,18.20
2021,06,26,06,01,18.40
2021,06,26,06,02,18.50
2021,06,26,06,03,18.60
2021,06,26,06,04,18.80
2021,06,26,06,05,19.00
2021,06,26,06,06,19.20
2021,06,26,06,07,19.40
2021,06,26,06,08,19.60
2021,06,26,06,09,19.80
2021,06,26,06,10,20.00
2021,06,26,06,11,20.20
2021,06,26,06,12,20.30
2021,06,26,06,13,20.50
2021,06,26,06,14,20.60
2021,06,26,06,15,20.70
2021,06,26,06,16,20.80
2021,06,26,06,17,20.90
2021,06,26,06,18,21.00
2021,06,26,06,19,21.10
2021,06,26,06,20,21.30
2021,06,26,06,21,21.30
2021,06,26,06,22,21.40
2021,06,26,06,23,21.40
2021,06,26,06,24,21.50
2021,06,26,06,25,21.60
2021,06,26,06,26,21.60
2021,06,26,06,27,21.60
2021,06,26,06,28,21.70
2021,06,26,06,29,21.70
2021,06,26,06,30,21.80
2021,06,26,06,31,21.80
2021,06,26,06,32,21.80
2021,06,26,06,33,21.90
2021,06,26,06,34,21.90
2021,06,26,06,35,21.90
2021,06,26,06,36,21.90
2021,06,26,06,37,22.00
2021,06,26,06,38,22.00
2021,06,26,06,39,22.00
2021,06,26,06,40,22.00
2021,06,26,06,41,22.00
2021,06,26,06,42,22.10
2021,06,26,06,43,22.10
2021,06,26,06,44,22.10
2021,06,26,06,45,22.20
2021,06,26,06,46,22.20
2021,06,26,06,47,22.20
2021,06,26,06,48,22.20
2021,06,26,06,49,22.30
2021,06,26,06,50,22.30
2021,06,26,06,51,22.30
2021,06,26,06,52,22.30
2021,06,26,06,53,22.40
2021,06,26,06,54,22.40
2021,06,26,06,55,22.40
2021,06,26,06,56,22.40
2021,06,26,06,57,22.50
2021,06,26,06,58,22.50
2021,06,26,06,59,22.50
2021,06,26,07,00,22.50
2021,06,26,07,01,22.50
2021,06,26,07,02,22.60
2021,06,26,07,03,22.60
2021,06,26,07,04,22.60
2021,06,26,07,05,22.60
2021,06,26,07,06,22.60
2021,06,26,07,07,22.50
2021,06,26,07,08,22.50
2021,06,26,07,09,22.50
2021,06,26,07,10,22.50
2021,06,26,07,11,22.50
2021,06,26,07,12,22.50
2021,06,26,07,13,22.50
2021,06,26,07,14,22.50
2021,06,26,07,15,22.50
2021,06,26,07,16,22.50
2021,06,26,07,17,22.50
2021,06,26,07,18,22.50
2021,06,26,07,19,22.50
2021,06,26,07,20,22.50
2021,06,26,07,21,22.50
2021,06,26,07,22,22.60
2021,06,26,07,23,22.60
2021,06,26,07,24,22.60
2021,06,26,07,25,22.60
2021,06,26,07,26,22.70
2021,06,26,07,27,22.70
2021,06,26,07,28,22.70
2021,06,26,07,29,22.70
2021,06,26,07,30,22.70
2021,06,26,07,31,22.80
2021,06,26,07,32,22.80
2021,06,26,07,33,22.80
2021,06,26,07,34,22.80
2021,06,26,07,35,22.80
2021,06,26,07,36,22.80
2021,06,26,07,37,22.80
2021,06,26,07,38,22.80
2021,06,26,07,39,22.80
2021,06,26,07,40,22.80
2021,06,26,07,41,22.80
2021,06,26,07,42,22.80
2021,06,26,07,43,22.80
2021,06,26,07,44,22.90
2021,06,26,07,45,22.90
2021,06,26,07,46,22.90
2021,06,26,07,47,22.90
2021,06,26,07,48,22.90
2021,06,26,07,49,22.90
2021,06,26,07,50,22.90
2021,06,26,07,51,22.90
2021,06,26,07,52,22.90
2021,06,26,07,53,22.90
2021,06,26,07,54,22.90
2021,06,26,07,55,22.90
2021,06,26,07,56,22.90
2021,06,26,07,57,23.00
2021,06,26,07,58,23.10
2021,06,26,07,59,23.10
2021,06,26,08,00,23.10
2021,06,26,08,01,23.10
2021,06,26,08,02,23.00
2021,06,26,08,03,23.10
2021,06,26,08,04,23.10
2021,06,26,08,05,23.10
2021,06,26,08,06,23.10
2021,06,26,08,07,23.10
2021,06,26,08,08,23.20
2021,06,26,08,09,23.20
2021,06,26,08,10,23.20
2021,06,26,08,11,23.30
2021,06,26,08,12,23.30
2021,06,26,08,13,23.50
2021,06,26,08,14,23.60
2021,06,26,08,15,23.70
2021,06,26,08,16,23.70
2021,06,26,08,17,23.80
2021,06,26,08,18,23.80
2021,06,26,08,19,23.90
2021,06,26,08,20,23.90
2021,06,26,08,21,23.90
2021,06,26,08,22,23.80
2021,06,26,08,23,23.80
2021,06,26,08,24,23.80
2021,06,26,08,25,23.80
2021,06,26,08,26,23.70
2021,06,26,08,27,23.70
2021,06,26,08,28,23.70
2021,06,26,08,29,23.70
2021,06,26,08,30,23.70
2021,06,26,08,31,23.70
2021,06,26,08,32,23.70
2021,06,26,08,33,23.60
2021,06,26,08,34,23.60
2021,06,26,08,35,23.60
2021,06,26,08,36,23.60
2021,06,26,08,37,23.60
2021,06,26,08,38,23.60
2021,06,26,08,39,23.70
2021,06,26,08,40,23.70
2021,06,26,08,41,23.70
2021,06,26,08,42,23.70
2021,06,26,08,43,23.70
2021,06,26,08,44,23.70
2021,06,26,08,45,23.70
2021,06,26,08,46,23.70
2021,06,26,08,47,23.70
2021,06,26,08,48,23.70
2021,06,26,08,49,23.80
2021,06,26,08,50,23.80
2021,06,26,08,51,23.80
2021,06,26,08,52,23.90
2021,06,26,08,53,23.90
2021,06,26,08,54,24.00
2021,06,26,08,55,24.10
2021,06,26,08,56,24.10
2021,06,26,08,57,24.10
2021,06,26,08,58,24.10
2021,06,26,08,59,24.10
2021,06,26,09,00,24.10
2021,06,26,09,01,24.20
2021,06,26,09,02,24.20
2021,06,26,09,03,24.30
2021,06,26,09,04,24.30
2021,06,26,09,05,24.40
2021,06,26,09,06,24.40
2021,06,26,09,07,24.50
2021,06,26,09,08,24.60
2021,06,26,09,09,24.60
2021,06,26,09,10,24.70
2021,06,26,09,11,24.70
2021,06,26,09,12,24.80
2021,06,26,09,13,24.80
2021,06,26,09,14,24.80
2021,06,26,09,15,24.90
2021,06,26,09,16,24.90
2021,06,26,09,17,24.90
2021,06,26,09,18,24.90
2021,06,26,09,19,24.90
2021,06,26,09,20,25.00
2021,06,26,09,21,25.00
2021,06,26,09,22,25.10
2021,06,26,09,23,25.10
2021,06,26,09,24,25.10
2021,06,26,09,25,25.10
2021,06,26,09,26,25.20
2021,06,26,09,27,25.20
2021,06,26,09,28,25.20
2021,06,26,09,29,25.20
2021,06,26,09,30,25.20
2021,06,26,09,31,25.20
2021,06,26,09,32,25.20
2021,06,26,09,33,25.20
2021,06,26,09,34,25.20
2021,06,26,09,35,25.20
2021,06,26,09,36,25.20
2021,06,26,09,37,25.30
2021,06,26,09,38,25.30
2021,06,26,09,39,25.40
2021,06,26,09,40,25.40
2021,06,26,09,41,25.40
2021,06,26,09,42,25.40
2021,06,26,09,43,25.50
2021,06,26,09,44,25.50
2021,06,26,09,45,25.40
2021,06,26,09,46,25.40
2021,06,26,09,47,25.40
2021,06,26,09,48,25.40
2021,06,26,09,49,25.40
2021,06,26,09,50,25.50
2021,06,26,09,51,25.60
2021,06,26,09,52,25.60
2021,06,26,09,53,25.60
2021,06,26,09,54,25.60
2021,06,26,09,55,25.60
2021,06,26,09,56,25.60
2021,06,26,09,57,25.60
2021,06,26,09,58,25.60
2021,06,26,09,59,25.60
2021,06,26,10,00,25.70
2021,06,26,10,01,25.70
2021,06,26,10,02,25.70
2021,06,26,10,03,25.80
2021,06,26,10,04,25.80
2021,06,26,10,05,25.80
2021,06,26,10,06,25.80
2021,06,26,10,07,25.80
2021,06,26,10,08,25.90
2021,06,26,10,09,25.90
2021,06,26,10,10,25.90
2021,06,26,10,11,25.90
2021,06,26,10,12,25.90
2021,06,26,10,13,25.90
2021,06,26,10,14,25.90
2021,06,26,10,15,25.90
2021,06,26,10,16,25.90
2021,06,26,10,17,25.90
2021,06,26,10,18,26.00
2021,06,26,10,19,26.10
2021,06,26,10,20,26.20
2021,06,26,10,21,26.30
2021,06,26,10,22,26.30
2021,06,26,10,23,26.40
2021,06,26,10,24,26.50
2021,06,26,10,25,26.60
2021,06,26,10,26,26.60
2021,06,26,10,27,26.60
2021,06,26,10,28,26.60
2021,06,26,10,29,26.60
2021,06,26,10,30,26.60
2021,06,26,10,31,26.40
2021,06,26,10,32,26.40
2021,06,26,10,33,26.40
2021,06,26,10,34,26.50
2021,06,26,10,35,26.60
2021,06,26,10,36,26.60
2021,06,26,10,37,26.60
2021,06,26,10,38,26.70
2021,06,26,10,39,26.70
2021,06,26,10,40,26.70
2021,06,26,10,41,26.70
2021,06,26,10,42,26.70
2021,06,26,10,43,26.70
2021,06,26,10,44,26.80
2021,06,26,10,45,26.80
2021,06,26,10,46,26.80
2021,06,26,10,47,26.80
2021,06,26,10,48,26.90
2021,06,26,10,49,26.90
2021,06,26,10,50,27.00
2021,06,26,10,51,27.10
2021,06,26,10,52,27.10
2021,06,26,10,53,27.10
2021,06,26,10,54,27.10
2021,06,26,10,55,27.10
2021,06,26,10,56,27.20
2021,06,26,10,57,27.30
2021,06,26,10,58,27.30
2021,06,26,10,59,27.30
2021,06,26,11,00,27.30
2021,06,26,11,01,27.40
2021,06,26,11,02,27.40
2021,06,26,11,03,27.40
2021,06,26,11,04,27.40
2021,06,26,11,05,27.50
2021,06,26,11,06,27.60
2021,06,26,11,07,27.60
2021,06,26,11,08,27.70
2021,06,26,11,09,27.70
2021,06,26,11,10,27.70
2021,06,26,11,11,27.70
2021,06,26,11,12,27.70
2021,06,26,11,13,27.80
2021,06,26,11,14,27.90
2021,06,26,11,15,27.90
2021,06,26,11,16,27.90
2021,06,26,11,17,27.80
2021,06,26,11,18,27.80
2021,06,26,11,19,27.80
2021,06,26,11,20,27.70
2021,06,26,11,21,27.70
2021,06,26,11,22,27.70
2021,06,26,11,23,27.70
2021,06,26,11,24,27.70
2021,06,26,11,25,27.70
2021,06,26,11,26,27.70
2021,06,26,11,27,27.80
2021,06,26,11,28,27.80
2021,06,26,11,29,27.80
2021,06,26,11,30,27.80
2021,06,26,11,31,27.80
2021,06,26,11,32,27.80
2021,06,26,11,33,27.90
2021,06,26,11,34,28.00
2021,06,26,11,35,28.00
2021,06,26,11,36,28.00
2021,06,26,11,37,28.00
2021,06,26,11,38,28.00
2021,06,26,11,39,28.10
2021,06,26,11,40,28.20
2021,06,26,11,41,28.30
2021,06,26,11,42,28.40
2021,06,26,11,43,28.50
2021,06,26,11,44,28.60
2021,06,26,11,45,28.60
2021,06,26,11,46,28.60
2021,06,26,11,47,28.70
2021,06,26,11,48,28.70
2021,06,26,11,49,28.80
2021,06,26,11,50,28.80
2021,06,26,11,51,28.80
2021,06,26,11,52,28.80
2021,06,26,11,53,28.90
2021,06,26,11,54,28.80
2021,06,26,11,55,28.80
2021,06,26,11,56,28.80
2021,06,26,11,57,28.70
2021,06,26,11,58,28.80
2021,06,26,11,59,28.70
2021,06,26,12,00,28.70
2021,06,26,12,01,28.70
2021,06,26,12,02,28.70
2021,06,26,12,03,28.70
2021,06,26,12,04,28.70
2021,06,26,12,05,28.70
2021,06,26,12,06,28.70
2021,06,26,12,07,28.80
2021,06,26,12,08,28.80
2021,06,26,12,09,28.80
2021,06,26,12,10,28.90
2021,06,26,12,11,28.90
2021,06,26,12,12,28.90
2021,06,26,12,13,28.90
2021,06,26,12,14,28.90
2021,06,26,12,15,28.90
2021,06,26,12,16,28.80
2021,06,26,12,17,28.80
2021,06,26,12,18,28.80
2021,06,26,12,19,28.80
2021,06,26,12,20,28.80
2021,06,26,12,21,28.80
2021,06,26,12,22,28.90
2021,06,26,12,23,28.90
2021,06,26,12,24,29.00
2021,06,26,12,25,29.10
2021,06,26,12,26,29.20
2021,06,26,12,27,29.30
2021,06,26,12,28,29.20
2021,06,26,12,29,29.20
2021,06,26,12,30,29.10
2021,06,26,12,31,29.10
2021,06,26,12,32,29.10
2021,06,26,12,33,29.10
2021,06,26,12,34,29.10
2021,06,26,12,35,29.10
2021,06,26,12,36,29.10
2021,06,26,12,37,29.20
2021,06,26,12,38,29.20
2021,06,26,12,39,29.30
2021,06,26,12,40,29.30
2021,06,26,12,41,29.30
2021,06,26,12,42,29.20
2021,06,26,12,43,29.10
2021,06,26,12,44,29.10
2021,06,26,12,45,29.10
2021,06,26,12,46,29.20
2021,06,26,12,47,29.20
2021,06,26,12,48,29.30
2021,06,26,12,49,29.40
2021,06,26,12,50,29.50
2021,06,26,12,51,29.50
2021,06,26,12,52,29.50
2021,06,26,12,53,29.40
2021,06,26,12,54,29.40
2021,06,26,12,55,29.40
2021,06,26,12,56,29.40
2021,06,26,12,57,29.40
2021,06,26,12,58,29.40
2021,06,26,12,59,29.40
2021,06,26,13,00,29.40
2021,06,26,13,01,29.40
2021,06,26,13,02,29.50
2021,06,26,13,03,29.50
2021,06,26,13,04,29.50
2021,06,26,13,05,29.50
2021,06,26,13,06,29.50
2021,06,26,13,07,29.50
2021,06,26,13,08,29.50
2021,06,26,13,09,29.50
2021,06,26,13,10,29.50
2021,06,26,13,11,29.50
2021,06,26,13,12,29.50
2021,06,26,13,13,29.50
2021,06,26,13,14,29.50
2021,06,26,13,15,29.50
2021,06,26,13,16,29.60
2021,06,26,13,17,29.70
2021,06,26,13,18,29.70
2021,06,26,13,19,29.70
2021,06,26,13,20,29.70
2021,06,26,13,21,29.80
2021,06,26,13,22,29.80
2021,06,26,13,23,29.80
2021,06,26,13,24,29.80
2021,06,26,13,25,29.80
2021,06,26,13,26,29.80
2021,06,26,13,27,29.80
2021,06,26,13,28,29.80
2021,06,26,13,29,29.80
2021,06,26,13,30,29.80
2021,06,26,13,31,29.80
2021,06,26,13,32,29.80
2021,06,26,13,33,29.80
2021,06,26,13,34,29.80
2021,06,26,13,35,29.80
2021,06,26,13,36,29.90
2021,06,26,13,37,29.90
2021,06,26,13,38,29.80
2021,06,26,13,39,29.80
2021,06,26,13,40,29.80
2021,06,26,13,41,29.70
2021,06,26,13,42,29.70
2021,06,26,13,43,29.70
2021,06,26,13,44,29.70
2021,06,26,13,45,29.80
2021,06,26,13,46,29.80
2021,06,26,13,47,29.80
2021,06,26,13,48,29.90
2021,06,26,13,49,29.90
2021,06,26,13,50,29.90
2021,06,26,13,51,29.90
2021,06,26,13,52,30.00
2021,06,26,13,53,30.10
2021,06,26,13,54,30.10
2021,06,26,13,55,30.10
2021,06,26,13,56,30.10
2021,06,26,13,57,30.00
2021,06,26,13,58,30.00
2021,06,26,13,59,30.10
2021,06,26,14,00,30.10
2021,06,26,14,01,30.20
2021,06,26,14,02,30.30
2021,06,26,14,03,30.30
2021,06,26,14,04,30.30
2021,06,26,14,05,30.30
2021,06,26,14,06,30.30
2021,06,26,14,07,30.30
2021,06,26,14,08,30.30
2021,06,26,14,09,30.30
2021,06,26,14,10,30.30
2021,06,26,14,11,30.30
2021,06,26,14,12,30.30
2021,06,26,14,13,30.30
2021,06,26,14,14,30.40
2021,06,26,14,15,30.50
2021,06,26,14,16,30.60
2021,06,26,14,17,30.40
2021,06,26,14,18,30.40
2021,06,26,14,19,30.40
2021,06,26,14,20,30.40
2021,06,26,14,21,30.40
2021,06,26,14,22,30.40
2021,06,26,14,23,30.60
2021,06,26,14,24,30.70
2021,06,26,14,25,30.70
2021,06,26,14,26,30.70
2021,06,26,14,27,30.80
2021,06,26,14,28,30.80
2021,06,26,14,29,30.80
2021,06,26,14,30,30.90
2021,06,26,14,31,30.90
2021,06,26,14,32,30.90
2021,06,26,14,33,30.90
2021,06,26,14,34,30.90
2021,06,26,14,35,30.90
2021,06,26,14,36,31.00
2021,06,26,14,37,31.00
2021,06,26,14,38,31.10
2021,06,26,14,39,31.20
2021,06,26,14,40,31.20
2021,06,26,14,41,31.30
2021,06,26,14,42,31.30
2021,06,26,14,43,31.30
2021,06,26,14,44,31.40
2021,06,26,14,45,31.50
2021,06,26,14,46,31.60
2021,06,26,14,47,31.50
2021,06,26,14,48,31.40
2021,06,26,14,49,31.40
2021,06,26,14,50,31.40
2021,06,26,14,51,31.40
2021,06,26,14,52,31.40
2021,06,26,14,53,31.40
2021,06,26,14,54,31.40
2021,06,26,14,55,31.50
2021,06,26,14,56,31.60
2021,06,26,14,57,31.60
2021,06,26,14,58,31.60
2021,06,26,14,59,31.60
2021,06,26,15,00,31.60
2021,06,26,15,01,31.50
2021,06,26,15,02,31.40
2021,06,26,15,03,31.40
2021,06,26,15,04,31.30
2021,06,26,15,05,31.30
2021,06,26,15,06,31.20
2021,06,26,15,07,31.20
2021,06,26,15,08,31.20
2021,06,26,15,09,31.10
2021,06,26,15,10,31.20
2021,06,26,15,11,31.20
2021,06,26,15,12,31.20
2021,06,26,15,13,31.30
2021,06,26,15,14,31.40
2021,06,26,15,15,31.40
2021,06,26,15,16,31.40
2021,06,26,15,17,31.50
2021,06,26,15,18,31.60
2021,06,26,15,19,31.70
2021,06,26,15,20,31.80
2021,06,26,15,21,31.70
2021,06,26,15,22,31.70
2021,06,26,15,23,31.60
2021,06,26,15,24,31.60
2021,06,26,15,25,31.60
2021,06,26,15,26,31.60
2021,06,26,15,27,31.50
2021,06,26,15,28,31.40
2021,06,26,15,29,31.50
2021,06,26,15,30,31.60
2021,06,26,15,31,31.60
2021,06,26,15,32,31.70
2021,06,26,15,33,31.80
2021,06,26,15,34,31.90
2021,06,26,15,35,32.00
2021,06,26,15,36,32.10
2021,06,26,15,37,32.10
2021,06,26,15,38,32.20
2021,06,26,15,39,32.20
2021,06,26,15,40,32.20
2021,06,26,15,41,32.30
2021,06,26,15,42,32.30
2021,06,26,15,43,32.30
2021,06,26,15,44,32.30
2021,06,26,15,45,32.20
2021,06,26,15,46,32.10
2021,06,26,15,47,32.10
2021,06,26,15,48,32.00
2021,06,26,15,49,31.90
2021,06,26,15,50,32.00
2021,06,26,15,51,32.10
2021,06,26,15,52,32.10
2021,06,26,15,53,32.20
2021,06,26,15,54,32.20
2021,06,26,15,55,32.20
2021,06,26,15,56,32.20
2021,06,26,15,57,32.20
2021,06,26,15,58,32.20
2021,06,26,15,59,32.20
2021,06,26,16,00,32.20
2021,06,26,16,01,32.20
2021,06,26,16,02,32.20
2021,06,26,16,03,32.20
2021,06,26,16,04,32.30
2021,06,26,16,05,32.40
2021,06,26,16,06,32.50
2021,06,26,16,07,32.50
2021,06,26,16,08,32.50
2021,06,26,16,09,32.50
2021,06,26,16,10,32.50
2021,06,26,16,11,32.50
2021,06,26,16,12,32.50
2021,06,26,16,13,32.50
2021,06,26,16,14,32.60
2021,06,26,16,15,32.60
2021,06,26,16,16,32.60
2021,06,26,16,17,32.50
2021,06,26,16,18,32.50
2021,06,26,16,19,32.50
2021,06,26,16,20,32.50
2021,06,26,16,21,32.50
2021,06,26,16,22,32.50
2021,06,26,16,23,32.50
2021,06,26,16,24,32.50
2021,06,26,16,25,32.50
2021,06,26,16,26,32.50
2021,06,26,16,27,32.60
2021,06,26,16,28,32.60
2021,06,26,16,29,32.80
2021,06,26,16,30,32.80
2021,06,26,16,31,32.90
2021,06,26,16,32,33.00
2021,06,26,16,33,33.00
2021,06,26,16,34,33.00
2021,06,26,16,35,33.00
2021,06,26,16,36,33.00
2021,06,26,16,37,33.00
2021,06,26,16,38,33.00
2021,06,26,16,39,32.90
2021,06,26,16,40,32.90
2021,06,26,16,41,32.90
2021,06,26,16,42,32.90
2021,06,26,16,43,32.90
2021,06,26,16,44,32.80
2021,06,26,16,45,32.80
2021,06,26,16,46,32.80
2021,06,26,16,47,32.90
2021,06,26,16,48,32.90
2021,06,26,16,49,33.00
2021,06,26,16,50,33.10
2021,06,26,16,51,33.10
2021,06,26,16,52,33.10
2021,06,26,16,53,33.20
2021,06,26,16,54,33.20
2021,06,26,16,55,33.20
2021,06,26,16,56,33.30
2021,06,26,16,57,33.40
2021,06,26,16,58,33.40
2021,06,26,16,59,33.50
2021,06,26,17,00,33.60
2021,06,26,17,01,33.70
2021,06,26,17,02,33.80
2021,06,26,17,03,33.90
2021,06,26,17,04,34.00
2021,06,26,17,05,34.10
2021,06,26,17,06,34.10
2021,06,26,17,07,34.10
2021,06,26,17,08,34.10
2021,06,26,17,09,34.00
2021,06,26,17,10,34.00
2021,06,26,17,11,34.00
2021,06,26,17,12,33.80
2021,06,26,17,13,33.80
2021,06,26,17,14,34.00
2021,06,26,17,15,33.80
2021,06,26,17,16,33.80
2021,06,26,17,17,33.70
2021,06,26,17,18,33.70
2021,06,26,17,19,33.70